Home   Weather   Zagazig   Past weeks
Flag for Egypt

Past Weather in Zagazig, Egypt — Yesterday and Last 2 Weeks

Now
82 °F

Clear.


Feels Like: 85 °F
Forecast: 95 / 69 °F
Wind: 16 mph from North

Location: Cairo Airport

Current Time: Sep 18, 2019 at 8:01:34 pm

Latest Report: Sep 18, 2019 at 7:30 pm


Visibility: 10 mi

Pressure: 29.95 "Hg

Humidity: 58%

Dew Point: 66 °F

Location of ZagazigLocation

Past Weather in Zagazig — Graph

°F

Zagazig Temperature Yesterday

Maximum temperature yesterday: 91 °F (at 12:30 pm)
Minimum temperature yesterday: 75 °F (at 4:00 am)
Average temperature yesterday: 83 °F

High & Low Weather Summary for the Past Weeks

 TemperatureHumidityPressure
High99 °F (Sep 6, 2:00 pm)83% (Sep 13, 4:30 am)30.09 "Hg (Sep 13, 4:30 am)
Low73 °F (Sep 18, 3:30 am)28% (Sep 6, 12:00 pm)29.71 "Hg (Sep 6, 4:00 pm)
Average83 °F58%29.87 "Hg
* Reported Sep 3 7:00 pm — Sep 18 7:00 pm, Zagazig. Weather by CustomWeather, © 2019

Note: Actual official high and low records may vary slightly from our data, if they occured in-between our weather recording intervals... More about our weather records

Advertising

Zagazig Weather History for the Previous 24 Hours

Scroll right to see more
 ConditionsComfort  
Time TempWeatherWind HumidityBarometerVisibility
7:00 pm
Wed, Sep 18
84 °FClear.15 mph55%29.92 "Hg10 mi
6:30 pm86 °FClear.15 mph49%29.92 "Hg10 mi
5:30 pm90 °FSunny.14 mph36%29.92 "Hg10 mi
5:00 pm90 °FSunny.13 mph36%29.92 "Hg10 mi
4:30 pm91 °FSunny.10 mph34%29.89 "Hg10 mi
4:00 pm91 °FSunny.13 mph32%29.89 "Hg10 mi
3:30 pm91 °FSunny.12 mph32%29.89 "Hg10 mi
3:00 pm91 °FSunny.12 mph32%29.89 "Hg10 mi
2:30 pm91 °FSunny.12 mph32%29.89 "Hg10 mi
2:00 pm90 °FSunny.13 mph33%29.92 "Hg10 mi
1:30 pm90 °FSunny.8 mph33%29.92 "Hg10 mi
1:00 pm90 °FSunny.12 mph33%29.92 "Hg10 mi
12:30 pm88 °FSunny.13 mph35%29.92 "Hg10 mi
12:00 pm88 °FSunny.12 mph35%29.92 "Hg10 mi
11:30 am88 °FSunny.6 mph35%29.95 "Hg10 mi
11:00 am86 °FSunny.10 mph38%29.95 "Hg10 mi
10:30 am86 °FSunny.9 mph40%29.95 "Hg10 mi
10:00 am82 °FSunny.8 mph48%29.95 "Hg10 mi
9:30 am82 °FSunny.7 mph55%29.98 "Hg10 mi
9:00 am81 °FSunny.12 mph58%29.98 "Hg10 mi
8:30 am79 °FClear.10 mph61%29.98 "Hg4 mi
8:00 am77 °FClear.9 mph69%29.98 "Hg4 mi
7:30 am75 °FClear.7 mph74%29.98 "Hg4 mi
7:00 am73 °FClear.6 mph78%29.95 "Hg4 mi
6:30 am73 °FClear.No wind78%29.95 "Hg4 mi
6:00 am73 °FClear.3 mph78%29.95 "Hg4 mi
5:30 am73 °FClear.2 mph83%29.95 "Hg4 mi
5:00 am73 °FClear.2 mph83%29.95 "Hg4 mi
4:30 am73 °FClear.5 mph83%29.95 "Hg4 mi
4:00 am73 °FClear.5 mph83%29.95 "Hg4 mi
3:30 am73 °FClear.5 mph83%29.95 "Hg4 mi
3:00 am75 °FClear.5 mph78%29.95 "Hg4 mi
2:30 am75 °FClear.5 mph78%29.95 "Hg4 mi
2:00 am75 °FClear.5 mph78%29.95 "Hg4 mi
1:30 am75 °FClear.6 mph78%29.95 "Hg10 mi
1:00 am75 °FClear.6 mph78%29.95 "Hg10 mi
12:30 am77 °FClear.7 mph74%29.95 "Hg10 mi
12:00 am77 °FClear.8 mph74%29.95 "Hg10 mi
11:30 pm
Tue, Sep 17
77 °FClear.8 mph74%29.95 "Hg10 mi
11:00 pm79 °FClear.8 mph70%29.95 "Hg10 mi
10:30 pm79 °FClear.15 mph70%29.98 "Hg10 mi
10:00 pm79 °FClear.15 mph70%29.98 "Hg10 mi
9:30 pm79 °FClear.15 mph70%29.95 "Hg10 mi
9:00 pm81 °FClear.15 mph62%29.95 "Hg10 mi
8:00 pm84 °FClear.18 mph51%29.95 "Hg10 mi
Weather by CustomWeather, © 2019

See weather overview